Date,TemperatureHighF,TemperatureAvgF,TemperatureLowF,DewpointHighF,DewpointAvgF,DewpointLowF,HumidityHigh,HumidityAvg,HumidityLow,PressureMaxIn,PressureMinIn,WindSpeedMaxMPH,WindSpeedAvgMPH,GustSpeedMaxMPH,PrecipitationSumIn
2013-2-1,54,45,38,44,40,36,90,83,69,30.29,30.18,0,0,0,0.00
2013-2-2,44,38,32,42,36,30,94,92,90,30.27,30.21,0,0,0,0.01
2013-2-3,48,43,36,42,39,34,93,88,79,30.28,30.18,0,0,0,0.01
2013-2-4,51,46,42,42,40,36,90,81,69,30.17,29.89,0,0,0,0.00
2013-2-5,50,46,44,43,41,38,90,80,71,30.01,29.89,0,0,0,0.25
2013-2-6,52,47,41,40,39,36,87,75,57,30.06,29.80,0,0,0,0.09
2013-2-7,47,41,34,38,36,31,90,83,59,30.06,29.90,0,0,0,0.13
2013-2-8,44,36,31,36,32,28,93,85,66,30.23,30.07,0,0,0,0.01
2013-2-9,44,40,36,39,36,33,92,87,76,30.25,30.21,0,0,0,0.05
2013-2-10,44,42,39,40,37,34,93,86,72,30.29,30.24,0,0,0,0.00
2013-2-11,46,43,40,41,37,35,92,81,70,30.34,30.25,0,0,0,0.03
2013-2-12,52,47,43,47,43,41,93,88,74,30.44,30.34,0,0,0,0.05
2013-2-13,51,48,46,45,44,41,90,85,75,30.45,30.38,0,0,0,0.00
2013-2-14,56,47,39,45,41,37,92,81,58,30.50,30.41,0,0,0,0.00
2013-2-15,57,43,36,45,39,33,93,85,61,30.40,30.17,0,0,0,0.00
2013-2-16,47,41,34,45,38,31,94,90,82,30.25,30.17,0,0,0,0.14
2013-2-17,45,40,35,38,33,28,92,78,50,30.24,30.03,0,0,0,0.00
2013-2-18,46,40,33,36,33,30,91,77,60,30.03,29.69,0,0,0,0.01
2013-2-19,50,42,38,38,36,34,88,79,58,29.94,29.60,0,0,0,0.08
2013-2-20,47,41,37,39,36,34,91,84,61,30.06,29.94,0,0,0,0.23
2013-2-21,43,41,38,38,37,35,90,85,80,30.17,30.06,0,0,0,0.11
2013-2-22,45,43,38,41,38,34,89,84,72,30.14,29.88,0,0,0,0.49
2013-2-23,44,39,34,38,35,31,91,85,74,30.40,30.05,0,0,0,0.10
2013-2-24,50,41,33,37,34,30,92,77,54,30.39,30.04,0,0,0,0.01
2013-2-25,48,42,36,39,36,32,89,80,52,30.34,30.00,0,0,0,0.12
2013-2-26,50,41,34,36,33,30,91,74,52,30.34,30.20,0,0,0,0.00
2013-2-27,51,45,40,42,38,34,85,76,63,30.26,30.16,0,0,0,0.02
2013-2-28,56,52,46,50,48,42,89,86,81,30.40,30.15,0,0,0,0.08